KI5NXU Weather Reports


time (UTC)temp
C
wind
direction
speed
KPH
gust
KPH
rain 1hr
cm
rain 24hr
cm
rain mn
cm
humidity
%
barometer
mb
20260901070346 26 91 0.0 1.6 0.00 0.00 0.00 58 1015.4
20260901065844 26 91 0.0 0.0 0.00 0.00 0.00 58 1015.3
20260901065340 26 91 0.0 0.0 0.00 0.00 0.00 57 1015.3
20260901064835 26 91 0.0 1.6 0.00 0.00 0.00 56 1015.6
20260901064331 26 95 1.6 1.6 0.00 0.00 0.00 58 1015.7
20260901063829 26 127 0.0 0.0 0.00 0.00 0.00 57 1015.4
20260901063325 27 128 0.0 0.0 0.00 0.00 0.00 56 1015.4
20260901062821 27 129 0.0 0.0 0.00 0.00 0.00 54 1015.5
20260901062317 27 133 1.6 1.6 0.00 0.00 0.00 53 1015.2
20260901061812 27 134 1.6 1.6 0.00 0.00 0.00 53 1015.2
20260901061312 27 135 1.6 1.6 0.00 0.00 0.00 53 1015.3
20260901060808 27 122 1.6 1.6 0.00 0.00 0.00 53 1015.4
20260901060303 27 119 1.6 1.6 0.00 0.00 0.00 52 1015.3
20260901055758 27 149 3.2 3.2 0.00 0.00 0.00 52 1015.2
20260901055255 27 146 3.2 3.2 0.00 0.00 0.00 52 1015.3
20260901054752 27 134 1.6 1.6 0.00 0.00 0.00 52 1015.1
20260901054248 28 138 1.6 3.2 0.00 0.00 0.00 52 1015.2
20260901053743 28 148 3.2 3.2 0.00 0.00 0.00 52 1015.2
20260901053238 28 135 0.0 0.0 0.00 0.00 0.00 52 1015.2
20260901052734 28 136 0.0 1.6 0.00 0.00 0.00 51 1015.1
20260901052229 28 145 1.6 1.6 0.00 0.00 0.00 50 1014.9
20260901051728 28 143 1.6 1.6 0.00 0.00 0.00 50 1015.1
20260901051222 28 162 3.2 4.8 0.00 0.00 0.00 49 1014.9
20260901050718 29 148 3.2 3.2 0.00 0.00 0.00 49 1015.1
20260901050213 29 144 3.2 4.8 0.00 0.00 0.00 49 1014.9
20260901045708 29 144 1.6 1.6 0.00 0.00 0.00 48 1015.0
20260901045202 29 154 3.2 3.2 0.00 0.00 0.00 48 1014.9
20260901044653 29 146 1.6 3.2 0.00 0.00 0.00 48 1015.0
20260901044149 30 138 3.2 3.2 0.00 0.00 0.00 47 1014.9
20260901043644 30 158 4.8 4.8 0.00 0.00 0.00 47 1015.1
20260901043140 30 168 4.8 4.8 0.00 0.00 0.00 47 1015.0
20260901042639 29 155 3.2 3.2 0.00 0.00 0.00 47 1015.1
20260901042134 30 151 1.6 3.2 0.00 0.00 0.00 47 1014.9
20260901041630 30 137 1.6 1.6 0.00 0.00 0.00 46 1015.0
20260901041125 30 149 1.6 3.2 0.00 0.00 0.00 46 1014.9
20260901040624 30 145 0.0 1.6 0.00 0.00 0.00 46 1015.0
20260901040118 30 141 0.0 1.6 0.00 0.00 0.00 46 1014.7
20260901035616 30 153 1.6 3.2 0.00 0.00 0.00 45 1015.0
20260901035115 30 160 3.2 4.8 0.00 0.00 0.00 44 1014.7
20260901034614 30 165 4.8 8.0 0.00 0.00 0.00 44 1014.9
20260901034109 30 137 1.6 1.6 0.00 0.00 0.00 44 1014.8
20260901033608 31 148 3.2 3.2 0.00 0.00 0.00 43 1014.7
20260901033103 31 151 3.2 3.2 0.00 0.00 0.00 43 1014.7
20260901032601 31 150 3.2 3.2 0.00 0.00 0.00 42 1014.7
20260901032057 31 162 3.2 3.2 0.00 0.00 0.00 42 1014.6
20260901031552 31 154 3.2 3.2 0.00 0.00 0.00 42 1014.6
20260901031048 31 144 3.2 3.2 0.00 0.00 0.00 41 1014.7
20260901030548 31 154 4.8 4.8 0.00 0.00 0.00 41 1014.5
20260901030043 31 164 4.8 8.0 0.00 0.00 0.00 40 1014.4
20260901025542 32 155 4.8 4.8 0.00 0.00 0.00 40 1014.2
20260901025043 32 142 3.2 3.2 0.00 0.00 0.00 40 1014.4
20260901024538 32 144 4.8 8.0 0.00 0.00 0.00 39 1014.3
20260901024036 32 148 6.4 11.3 0.00 0.00 0.00 40 1014.2
20260901023535 32 153 3.2 4.8 0.00 0.00 0.00 39 1014.2
20260901023031 32 136 4.8 4.8 0.00 0.00 0.00 39 1014.1
20260901022526 32 155 4.8 9.7 0.00 0.00 0.00 39 1014.0
20260901022021 32 142 1.6 1.6 0.00 0.00 0.00 39 1014.1
20260901021517 32 162 3.2 4.8 0.00 0.00 0.00 38 1013.9
20260901021012 32 156 6.4 8.0 0.00 0.00 0.00 38 1013.7
20260901020507 32 150 4.8 4.8 0.00 0.00 0.00 38 1013.7
20260901020002 32 148 3.2 3.2 0.00 0.00 0.00 39 1013.8
20260901015458 32 144 4.8 4.8 0.00 0.00 0.00 38 1013.6
20260901014957 33 143 4.8 4.8 0.00 0.00 0.00 38 1013.7
20260901014453 33 142 4.8 4.8 0.00 0.00 0.00 38 1013.5
20260901013949 33 168 4.8 8.0 0.00 0.00 0.00 38 1013.8
20260901013444 33 161 3.2 3.2 0.00 0.00 0.00 37 1013.5
20260901012939 33 180 6.4 8.0 0.00 0.00 0.00 37 1013.7
20260901012434 33 152 1.6 3.2 0.00 0.00 0.00 37 1013.6
20260901011929 33 170 6.4 8.0 0.00 0.00 0.00 37 1013.4
20260901011426 33 149 8.0 9.7 0.00 0.00 0.00 36 1013.6
20260901010923 33 166 11.3 14.5 0.00 0.00 0.00 36 1013.5
20260901010419 34 150 4.8 9.7 0.00 0.00 0.00 36 1013.3
20260901005918 34 163 8.0 9.7 0.00 0.00 0.00 35 1013.4
20260901005413 34 159 6.4 8.0 0.00 0.00 0.00 35 1013.2
20260901004908 35 152 4.8 8.0 0.00 0.00 0.00 35 1013.2
20260901004407 35 184 4.8 4.8 0.00 0.00 0.00 35 1013.0
20260901003902 35 153 6.4 9.7 0.00 0.00 0.00 35 1013.2
20260901003357 35 193 8.0 11.3 0.00 0.00 0.00 34 1013.2
20260901002855 35 179 4.8 4.8 0.00 0.00 0.00 34 1012.9
20260901002355 36 143 4.8 4.8 0.00 0.00 0.00 34 1013.2
20260901001849 36 157 4.8 8.0 0.00 0.00 0.00 33 1012.9
20260901001345 36 123 4.8 8.0 0.00 0.00 0.00 33 1013.0
20260901000841 36 126 4.8 8.0 0.00 0.00 0.00 33 1013.0
20260901000336 37 174 9.7 17.7 0.00 0.00 0.00 32 1012.8
20260831235833 37 152 3.2 8.0 0.00 0.00 0.00 32 1013.2
20260831235330 37 131 4.8 4.8 0.00 0.00 0.00 31 1012.9
20260831234825 37 159 6.4 8.0 0.00 0.00 0.00 31 1013.0
20260831234325 37 149 6.4 9.7 0.00 0.00 0.00 30 1013.3
20260831233820 38 186 11.3 16.1 0.00 0.00 0.00 30 1013.0
20260831233315 38 144 8.0 11.3 0.00 0.00 0.00 28 1012.9
20260831232810 38 173 3.2 4.8 0.00 0.00 0.00 28 1012.9
20260831232307 38 145 8.0 12.9 0.00 0.00 0.00 29 1012.8
20260831231802 38 148 8.0 11.3 0.00 0.00 0.00 29 1012.9
20260831231259 38 175 6.4 9.7 0.00 0.00 0.00 29 1013.0
20260831230754 38 127 6.4 9.7 0.00 0.00 0.00 28 1012.8
20260831230249 38 136 0.0 0.0 0.00 0.00 0.00 28 1012.9
20260831225748 38 144 4.8 4.8 0.00 0.00 0.00 28 1012.9
20260831225243 38 147 3.2 9.7 0.00 0.00 0.00 28 1012.9
20260831224738 38 132 4.8 4.8 0.00 0.00 0.00 28 1012.9
20260831224233 38 159 4.8 8.0 0.00 0.00 0.00 28 1013.3
20260831223728 38 195 8.0 11.3 0.00 0.00 0.00 29 1013.3
20260831223225 38 186 4.8 8.0 0.00 0.00 0.00 27 1013.3
20260831222715 38 188 3.2 4.8 0.00 0.00 0.00 27 1013.2
20260831222210 39 157 4.8 9.7 0.00 0.00 0.00 26 1013.3
20260831221705 40 136 11.3 14.5 0.00 0.00 0.00 26 1013.2
20260831221201 40 155 3.2 4.8 0.00 0.00 0.00 26 1012.9
20260831220650 39 159 3.2 3.2 0.00 0.00 0.00 27 1013.0
20260831220145 38 86 4.8 4.8 0.00 0.00 0.00 28 1013.0
20260831215640 39 124 3.2 9.7 0.00 0.00 0.00 27 1013.5
20260831215136 40 164 4.8 8.0 0.00 0.00 0.00 26 1013.0
20260831214633 40 182 3.2 4.8 0.00 0.00 0.00 27 1013.5
20260831214129 39 125 1.6 3.2 0.00 0.00 0.00 27 1013.5
20260831213626 38 143 1.6 3.2 0.00 0.00 0.00 28 1013.7
20260831213120 38 183 1.6 1.6 0.00 0.00 0.00 28 1013.6
20260831212617 39 122 3.2 3.2 0.00 0.00 0.00 28 1013.7
20260831212113 39 183 8.0 9.7 0.00 0.00 0.00 28 1013.8
20260831211612 39 142 3.2 4.8 0.00 0.00 0.00 28 1013.9
20260831211111 40 219 11.3 14.5 0.00 0.00 0.00 26 1013.9
20260831210606 39 194 4.8 8.0 0.00 0.00 0.00 27 1014.0
20260831205602 39 153 4.8 8.0 0.00 0.00 0.00 27 1014.1
20260831205058 40 172 4.8 8.0 0.00 0.00 0.00 27 1014.1
20260831204553 38 207 8.0 9.7 0.00 0.00 0.00 29 1014.4
20260831204051 37 246 6.4 9.7 0.00 0.00 0.00 30 1014.1
20260831203546 38 201 9.7 11.3 0.00 0.00 0.00 29 1014.1
20260831203046 39 140 4.8 8.0 0.00 0.00 0.00 28 1014.6
20260831202545 39 199 3.2 3.2 0.00 0.00 0.00 29 1014.5
20260831202045 37 125 1.6 3.2 0.00 0.00 0.00 30 1014.5
20260831201543 38 148 1.6 1.6 0.00 0.00 0.00 30 1014.6
20260831201039 38 153 1.6 3.2 0.00 0.00 0.00 30 1014.4
20260831200535 38 177 8.0 11.3 0.00 0.00 0.00 30 1014.8
20260831200034 38 151 3.2 3.2 0.00 0.00 0.00 30 1014.9
20260831195530 37 270 8.0 9.7 0.00 0.00 0.00 32 1014.8
20260831195025 37 220 8.0 9.7 0.00 0.00 0.00 30 1015.0
20260831194514 38 145 1.6 1.6 0.00 0.00 0.00 30 1015.2
20260831194009 37 181 3.2 8.0 0.00 0.00 0.00 30 1015.1
20260831193504 37 181 4.8 8.0 0.00 0.00 0.00 31 1015.0
20260831192959 37 172 1.6 3.2 0.00 0.00 0.00 32 1015.0
20260831192454 37 165 1.6 3.2 0.00 0.00 0.00 32 1015.3
20260831191949 37 159 1.6 3.2 0.00 0.00 0.00 32 1015.3
20260831191445 37 173 3.2 4.8 0.00 0.00 0.00 32 1015.3
20260831190941 37 212 8.0 9.7 0.00 0.00 0.00 32 1015.3
20260831190436 36 191 9.7 12.9 0.00 0.00 0.00 33 1015.4
20260831185935 36 96 0.0 1.6 0.00 0.00 0.00 33 1015.2
20260831185431 37 98 6.4 9.7 0.00 0.00 0.00 32 1015.6
20260831184930 37 159 3.2 3.2 0.00 0.00 0.00 32 1015.4
20260831184425 36 172 4.8 4.8 0.00 0.00 0.00 36 1015.7
20260831183921 36 159 1.6 3.2 0.00 0.00 0.00 35 1016.0
20260831183420 37 151 3.2 8.0 0.00 0.00 0.00 34 1015.8
20260831182914 35 203 9.7 11.3 0.00 0.00 0.00 37 1016.0
20260831182409 35 232 8.0 9.7 0.00 0.00 0.00 38 1015.8
20260831181904 36 221 14.5 16.1 0.00 0.00 0.00 36 1016.2
20260831181400 35 147 3.2 3.2 0.00 0.00 0.00 37 1016.0
20260831180900 35 124 0.0 1.6 0.00 0.00 0.00 38 1016.2
20260831180354 37 133 3.2 8.0 0.00 0.00 0.00 36 1016.3
20260831175853 36 177 4.8 8.0 0.00 0.00 0.00 37 1016.4
20260831175350 35 186 6.4 11.3 0.00 0.00 0.00 37 1016.4
20260831174846 35 164 4.8 9.7 0.00 0.00 0.00 37 1016.7
20260831174341 35 222 4.8 8.0 0.00 0.00 0.00 40 1016.6
20260831173840 35 183 6.4 9.7 0.00 0.00 0.00 41 1016.3
20260831173340 35 156 1.6 3.2 0.00 0.00 0.00 40 1016.8
20260831172835 35 207 9.7 12.9 0.00 0.00 0.00 40 1016.9
20260831172331 35 188 4.8 8.0 0.00 0.00 0.00 41 1016.8
20260831171830 35 199 9.7 11.3 0.00 0.00 0.00 40 1016.9
20260831171327 35 223 8.0 14.5 0.00 0.00 0.00 40 1017.0
20260831170823 36 140 1.6 3.2 0.00 0.00 0.00 40 1017.1
20260831170319 35 126 1.6 3.2 0.00 0.00 0.00 41 1017.2
20260831165815 35 156 4.8 9.7 0.00 0.00 0.00 42 1017.1
20260831165312 35 184 4.8 4.8 0.00 0.00 0.00 42 1017.2
20260831164807 34 146 4.8 8.0 0.00 0.00 0.00 43 1017.1
20260831164303 35 144 8.0 14.5 0.00 0.00 0.00 42 1017.2
20260831163759 35 154 11.3 14.5 0.00 0.00 0.00 42 1017.3
20260831163254 35 186 6.4 8.0 0.00 0.00 0.00 43 1017.2
20260831162753 34 155 3.2 4.8 0.00 0.00 0.00 44 1017.3
20260831162248 33 194 6.4 8.0 0.00 0.00 0.00 44 1017.3
20260831161741 33 200 8.0 9.7 0.00 0.00 0.00 47 1017.4
20260831161238 32 198 6.4 8.0 0.00 0.00 0.00 51 1017.1
20260831160732 33 211 4.8 8.0 0.00 0.00 0.00 47 1017.3
20260831160227 32 229 11.3 12.9 0.00 0.00 0.00 50 1017.3
20260831155726 31 212 4.8 8.0 0.00 0.00 0.00 52 1017.2
20260831155222 31 219 9.7 11.3 0.00 0.00 0.00 53 1017.2
20260831154718 31 221 9.7 11.3 0.00 0.00 0.00 52 1017.3
20260831154214 31 224 11.3 12.9 0.00 0.00 0.00 53 1017.0
20260831153713 31 226 11.3 12.9 0.00 0.00 0.00 54 1016.9
20260831153208 31 206 9.7 11.3 0.00 0.00 0.00 55 1016.9
20260831152704 30 225 8.0 11.3 0.00 0.00 0.00 56 1016.8
20260831152200 30 211 9.7 12.9 0.00 0.00 0.00 57 1016.8
20260831151700 30 210 8.0 9.7 0.00 0.00 0.00 58 1016.9
20260831151154 30 222 14.5 14.5 0.00 0.00 0.00 57 1017.0
20260831150649 31 209 4.8 4.8 0.00 0.00 0.00 57 1017.0
20260831150145 30 197 8.0 11.3 0.00 0.00 0.00 57 1017.1
20260831145644 30 164 3.2 3.2 0.00 0.00 0.00 57 1017.1
20260831145141 30 131 3.2 4.8 0.00 0.00 0.00 57 1016.9
20260831144636 30 143 0.0 1.6 0.00 0.00 0.00 58 1017.1
20260831144132 30 168 4.8 4.8 0.00 0.00 0.00 58 1017.0
20260831143631 30 183 4.8 4.8 0.00 0.00 0.00 59 1017.0
20260831143126 30 156 4.8 4.8 0.00 0.00 0.00 60 1016.9
20260831142623 30 121 0.0 1.6 0.00 0.00 0.00 60 1017.0
20260831142118 30 177 6.4 8.0 0.00 0.00 0.00 61 1017.0
20260831141617 29 146 3.2 4.8 0.00 0.00 0.00 62 1016.7
20260831141113 29 147 4.8 4.8 0.00 0.00 0.00 62 1016.8
20260831140612 29 128 0.0 1.6 0.00 0.00 0.00 62 1016.7
20260831140107 28 135 1.6 1.6 0.00 0.00 0.00 63 1016.9
20260831135604 28 133 3.2 3.2 0.00 0.00 0.00 64 1016.8
20260831135100 28 129 1.6 1.6 0.00 0.00 0.00 65 1016.7
20260831134556 28 125 1.6 1.6 0.00 0.00 0.00 64 1016.9
20260831134056 28 158 3.2 4.8 0.00 0.00 0.00 65 1016.6
20260831133556 28 123 3.2 3.2 0.00 0.00 0.00 66 1016.6
20260831133051 27 135 0.0 1.6 0.00 0.00 0.00 67 1016.3
20260831132547 27 125 1.6 1.6 0.00 0.00 0.00 68 1016.3
20260831132040 27 146 1.6 3.2 0.00 0.00 0.00 68 1016.2
20260831131535 26 124 0.0 0.0 0.00 0.00 0.00 70 1016.2
20260831131031 26 132 1.6 3.2 0.00 0.00 0.00 71 1016.3
20260831130526 25 85 1.6 3.2 0.00 0.00 0.00 72 1015.9
20260831130022 25 117 0.0 1.6 0.00 0.00 0.00 72 1016.0
20260831125515 25 124 1.6 3.2 0.00 0.00 0.00 73 1015.9
20260831125010 25 136 1.6 1.6 0.00 0.00 0.00 73 1015.8
20260831124506 25 121 1.6 1.6 0.00 0.00 0.00 74 1015.8
20260831124001 25 117 0.0 0.0 0.00 0.00 0.00 74 1015.4
20260831123455 25 114 1.6 1.6 0.00 0.00 0.00 75 1015.8
20260831122950 25 98 0.0 1.6 0.00 0.00 0.00 75 1015.5
20260831122445 25 118 0.0 1.6 0.00 0.00 0.00 75 1015.5
20260831121940 25 120 0.0 1.6 0.00 0.00 0.00 75 1015.2
20260831121435 25 117 0.0 1.6 0.00 0.00 0.00 75 1015.1
20260831120925 25 112 0.0 1.6 0.00 0.00 0.00 75 1015.1
20260831120419 25 109 0.0 0.0 0.00 0.00 0.00 75 1015.1
20260831115914 25 109 0.0 0.0 0.00 0.00 0.00 75 1015.2
20260831115411 25 109 0.0 0.0 0.00 0.00 0.00 75 1015.0
20260831114910 25 116 0.0 1.6 0.00 0.00 0.00 75 1015.1
20260831114409 25 116 0.0 0.0 0.00 0.00 0.00 74 1014.9
20260831113904 25 116 0.0 1.6 0.00 0.00 0.00 74 1015.1
20260831113359 25 121 0.0 1.6 0.00 0.00 0.00 74 1015.0
20260831112853 26 126 0.0 0.0 0.00 0.00 0.00 73 1015.0
20260831112348 26 133 1.6 1.6 0.00 0.00 0.00 72 1015.1
20260831111843 26 138 0.0 1.6 0.00 0.00 0.00 72 1015.0
20260831111340 26 138 1.6 1.6 0.00 0.00 0.00 72 1014.8
20260831110835 26 137 3.2 4.8 0.00 0.00 0.00 72 1015.1
20260831110329 26 154 3.2 3.2 0.00 0.00 0.00 72 1014.9
20260831105828 26 149 3.2 4.8 0.00 0.00 0.00 71 1014.7
20260831105324 26 135 1.6 3.2 0.00 0.00 0.00 72 1014.5
20260831104825 26 132 0.0 0.0 0.00 0.00 0.00 72 1014.7
20260831104321 26 132 0.0 0.0 0.00 0.00 0.00 72 1014.7
20260831103821 26 132 0.0 0.0 0.00 0.00 0.00 71 1014.5
20260831103317 26 132 0.0 0.0 0.00 0.00 0.00 71 1014.4
20260831102811 26 132 0.0 0.0 0.00 0.00 0.00 70 1014.6
20260831102306 26 131 0.0 0.0 0.00 0.00 0.00 70 1014.5
20260831101802 26 132 0.0 0.0 0.00 0.00 0.00 70 1014.5
20260831101257 26 133 1.6 1.6 0.00 0.00 0.00 70 1014.6
20260831100753 26 131 0.0 0.0 0.00 0.00 0.00 70 1014.4
20260831100249 26 131 0.0 0.0 0.00 0.00 0.00 69 1014.6
20260831095748 27 131 0.0 1.6 0.00 0.00 0.00 69 1014.5
20260831095242 27 133 1.6 1.6 0.00 0.00 0.00 68 1014.5
20260831094737 27 128 0.0 0.0 0.00 0.00 0.00 67 1014.6
20260831094233 27 135 1.6 3.2 0.00 0.00 0.00 67 1014.6
20260831093730 27 146 3.2 3.2 0.00 0.00 0.00 67 1014.7
20260831093224 27 129 0.0 3.2 0.00 0.00 0.00 66 1014.4
20260831092721 27 144 1.6 1.6 0.00 0.00 0.00 66 1014.6
20260831092216 27 149 3.2 3.2 0.00 0.00 0.00 65 1014.5
20260831091715 27 162 1.6 1.6 0.00 0.00 0.00 65 1014.5
20260831091211 27 191 6.4 8.0 0.00 0.00 0.00 65 1014.6
20260831090711 27 165 3.2 3.2 0.00 0.00 0.00 64 1014.6
20260831090208 27 153 1.6 1.6 0.00 0.00 0.00 64 1014.6
20260831085703 27 172 6.4 8.0 0.00 0.00 0.00 63 1014.6
20260831085158 27 167 4.8 4.8 0.00 0.00 0.00 63 1014.5
20260831084653 28 147 1.6 3.2 0.00 0.00 0.00 63 1014.5
20260831084149 28 133 1.6 1.6 0.00 0.00 0.00 62 1014.6
20260831083645 28 144 3.2 4.8 0.00 0.00 0.00 62 1014.4
20260831083140 28 149 1.6 1.6 0.00 0.00 0.00 61 1014.3
20260831082638 28 146 1.6 1.6 0.00 0.00 0.00 61 1014.5
20260831082135 28 178 3.2 4.8 0.00 0.00 0.00 61 1014.3
20260831081629 28 161 1.6 1.6 0.00 0.00 0.00 60 1014.4
20260831081125 28 148 1.6 1.6 0.00 0.00 0.00 59 1014.3
20260831080621 28 152 0.0 1.6 0.00 0.00 0.00 59 1014.4
20260831080115 28 161 1.6 3.2 0.00 0.00 0.00 59 1014.3
20260831075612 28 162 3.2 3.2 0.00 0.00 0.00 58 1014.4
20260831075107 28 149 0.0 1.6 0.00 0.00 0.00 57 1014.2
20260831074606 28 187 1.6 3.2 0.00 0.00 0.00 57 1014.2
20260831074101 28 168 3.2 3.2 0.00 0.00 0.00 56 1014.4
20260831073556 28 167 1.6 3.2 0.00 0.00 0.00 56 1014.3
20260831073055 28 145 0.0 1.6 0.00 0.00 0.00 55 1014.1
20260831072550 28 148 1.6 1.6 0.00 0.00 0.00 55 1014.2
20260831072047 28 107 6.4 9.7 0.00 0.00 0.00 54 1014.1
20260831071545 29 155 3.2 4.8 0.00 0.00 0.00 53 1014.4
20260831071041 29 169 3.2 4.8 0.00 0.00 0.00 53 1014.0